Reflectivity
-20 -20 -20 -20 -17 -20 -20 -20 -20 -20 -20 -20 -20 -20 -20 -20 -20 -20 -20 -20 -20 -20 -20 -20 -20 -20 0 -1 -18 -20 -20 -17 -20 -20 -20 -6 -20 2 -20 -19 2 -20 -20 -9 4 -15 1 -5 -3
-20 -20 -20 -3 -17 -18 -20 -20 -20 -20 -20 -20 -20 -7 -20 -16 -20 -20 -20 -20 -20 -20 -20 -20 -20 -20 -15 -13 -14 -15 -20 -11 -20 -16 6 -1 3 -9 -14 -20 -11 -3 -20 0 -15 6 10 -12 -8
-20 -20 -20 -20 -20 -20 -20 -20 -20 -20 -20 -20 -20 -20 -20 -20 -20 -20 -20 -20 -20 -20 -20 -20 -20 -20 4 3 -5 -13 -19 -20 -20 -2 8 -20 -20 -20 1 -6 -20 2 -10 -20 10 6 -15 -20 -20
-20 -20 -20 -20 -20 -20 5 -20 -20 -20 -20 -20 -20 -20 -20 -20 -20 -20 -20 -20 -20 -20 -20 -20 -20 -20 -20 -19 4 -2 -20 -20 -20 1 -20 -15 4 5 -20 13 -20 -20 9 -20 -20 -20 -20 -20 -20
-20 -20 -20 -20 -20 -20 -20 -10 -20 -20 -20 -20 -20 -20 -20 -20 -20 -20 -20 -20 -20 -20 -20 -20 -20 -20 -20 -20 -3 -2 -14 -20 -0 -20 -20 -18 4 -20 -3 -7 -20 -8 6 7 -20 -20 -20 -19 -19
-20 -20 -20 -20 -8 17 -20 -20 -20 -20 -20 -20 -20 -20 -20 -20 -20 -20 -20 -20 -20 -20 -20 -20 -20 -14 -20 -20 -20 2 -11 2 1 -20 -6 -18 -4 -16 -11 -20 -10 -20 -7 -10 -20 -20 -20 23 19
-20 -20 -20 -20 -20 -20 -20 -18 -20 -20 -20 -20 -20 -20 -20 -20 -20 -20 -20 -20 -20 -20 -20 -20 -20 -5 -20 -20 -1 -11 -20 11 -4 -20 3 -20 -20 -7 -20 -20 -20 -20 -20 -20 -20 -20 -20 8 -11
-20 -20 -20 -20 -20 -20 -20 -20 -20 -20 -20 -20 -20 -20 -20 -20 -20 -20 -20 -20 -20 -20 -20 -20 -20 -20 -20 -20 1 -5 6 -20 -5 -17 -1 -20 -20 -20 -20 -20 -20 -20 -20 -20 -20 -20 -20 -20 -18
-20 -20 -20 -20 -20 -20 -20 -20 -20 -20 -20 -20 -20 -20 -20 -20 -20 -20 -20 -20 -20 -20 -20 -20 -20 -20 -20 -20 -1 -6 -8 -20 -20 3 -20 -20 -20 -20 -20 -20 -20 -20 -20 -20 -20 -20 -20 -20 -20
-20 -20 -20 -20 -20 -20 -20 -20 -20 -20 -20 -20 -20 -20 -20 -20 -20 -20 -20 -20 -20 -20 -20 -20 -20 -20 -20 -20 -20 -20 -20 -20 -20 -20 -20 -20 -20 -20 -20 -20 -20 -20 -20 -20 -20 -20 -20 -20 -20
-20 -20 -20 -20 -20 -20 -20 -20 -20 -20 -17 -20 14 -20 -20 -20 -20 -20 -20 -20 -20 -20 -20 -20 -20 -20 -20 -20 -20 -20 -20 -20 -20 -20 -20 -20 -20 -20 -20 -20 -20 -20 -20 -20 -20 -20 -20 -20 -20
-20 -20 -20 -20 -20 -20 -20 -20 -20 -20 -20 -20 -20 -20 -19 -20 -20 -20 -20 -20 -20 -20 -20 -20 -20 -20 -20 -20 -20 -20 -20 -20 -20 -20 -20 -20 -20 -20 -20 -20 -20 -20 -20 -20 -20 -20 -20 -20 -20
-20 -20 -20 -20 -20 -20 -20 -20 -20 -20 -20 -20 -20 -20 -20 -20 -20 -20 -20 -20 -20 -20 -20 -20 -20 -20 -20 -20 -20 -20 -20 -20 -20 -20 -20 -20 -20 -20 -20 -20 -20 -20 -20 -20 -20 -20 -20 -20 -20
-20 -20 -20 -20 -20 -20 -20 -20 -20 -20 -20 -20 -20 -20 -20 -20 -20 -20 -20 -20 -20 -20 -20 -20 -20 -20 -20 -20 -20 -20 -20 -20 -20 -20 -20 -20 -20 -20 -20 -20 -20 -20 -20 23 -20 -20 -20 -20 -6
-17 -20 -20 -20 -20 -20 -20 -20 -20 -20 -20 -20 -20 -20 -20 -20 -20 -20 -20 -20 -20 -20 -20 -20 -20 -20 -20 -20 -20 -20 -20 -20 -20 -20 -20 -20 -20 -20 -20 -20 -20 -20 -20 -20 -20 -20 -17 -20 -19
-20 -20 -20 -20 -20 -20 -20 -20 -20 -20 -20 -20 -20 -20 -20 -20 -20 -20 -20 -20 -20 -20 -20 -20 -20 -20 -20 -20 -20 -20 -20 -20 -20 -20 -20 -20 -20 -20 -20 -20 -20 -20 -20 -20 -20 -20 30 18 -20
3 -20 -7 -20 -20 -20 -20 -20 -20 -20 -20 -20 -20 -20 -20 -20 -20 -20 -20 -20 -20 -20 -20 -20 -20 -20 -20 -20 -20 -20 -20 -20 -20 -20 -20 -20 -20 -20 -20 -20 -20 -20 -20 -20 -20 7 -20 -20 -20
-20 -20 -20 -7 -20 -20 -20 -20 -20 -20 -20 -20 -20 -20 -20 -20 -20 -20 -20 -20 -20 -20 -20 -20 -20 -20 -20 -20 -20 -20 -20 -20 -20 -20 -20 -20 -20 -20 -20 -20 -20 -20 -20 -20 -12 -20 -20 -20 -20
-20 -20 -20 -20 -20 -20 -20 -20 -20 -20 -20 -20 -20 -20 -20 -20 -20 -20 -20 -20 -20 -20 -20 -20 -20 -20 -20 -20 -20 -20 -20 -20 -20 -20 -20 -20 -20 -20 -20 -20 -20 -20 -20 -20 -20 -20 -20 12 -20
-20 -20 -20 -20 -20 -20 -20 -20 -20 -20 -20 -20 -20 -20 -20 -20 -20 -20 -20 -20 -20 -20 -20 -20 -20 -20 -20 -20 -20 -20 -20 -20 -20 -20 -20 -20 -20 -20 -20 -20 -20 -20 -20 -20 -20 -20 -20 -20 -20
-20 -20 -20 -20 -20 -20 -20 -20 -20 -20 -20 -20 -20 -20 -20 -20 -20 -20 -20 -20 -20 -20 -20 -20 -20 -20 -20 -20 -20 -20 -20 -20 -20 -20 -13 -17 -20 -20 -20 -20 -20 -20 -20 -20 -20 -20 -20 -20 -20
-20 -20 -20 -20 -20 -20 -20 -20 -20 -20 -20 -20 -20 -20 -20 -20 -20 -20 -20 -20 -20 -20 -20 -20 -20 -20 -20 -20 -20 -20 -20 -20 -20 -20 -20 -20 -20 -20 -20 -20 -20 -20 -10 -20 12 -20 19 25 -9
-20 -20 -20 -20 -20 -20 -20 -20 -20 -20 -20 -20 -20 -20 -20 -20 -20 -20 -20 -20 -20 -20 -20 -20 -20 -20 -20 -20 -20 -20 -20 -20 -20 -20 -20 -20 -20 -20 -20 -20 -20 -20 -20 14 -20 -20 -20 -20 -20
-20 -20 -20 -20 -20 -20 -20 -20 -20 -20 -20 -20 -20 -20 -20 -20 -20 -20 -20 -20 -20 -20 -20 -20 -20 -20 -20 -20 -20 -20 -20 -20 -20 -20 -20 -20 -20 -20 -20 -20 -20 -20 -20 5 -20 -20 -20 -15 28
-20 -20 -20 -20 -20 -20 -20 -20 -20 -20 -20 -20 -20 -20 -20 -20 -20 -20 -20 -20 -20 -20 -20 -20 -20 -20 -20 -20 -20 -20 -20 -20 -20 -20 -20 -20 -20 -20 -20 -20 -20 -20 -20 -20 -5 -20 -20 -8 7
-20 -20 -20 -20 -20 -20 -20 -20 -20 -20 -20 -20 -20 -20 -20 -20 -20 -20 -20 -20 -20 -20 -20 -20 -20 -20 -20 -20 -20 -20 -20 -20 -20 -20 -20 -20 -20 -20 -20 -20 -20 -20 -20 -20 -20 -20 -20 -20 -1
-20 -20 -20 -20 -20 -20 -20 -20 -20 -20 -20 -20 -20 -20 -20 -20 -20 -20 -20 -20 -20 -20 -20 -20 -20 -20 -20 -20 -20 -20 -20 -20 -20 -20 -20 -20 -20 -20 -20 -20 -20 -20 -20 -20 -20 -20 -20 -20 -20
-20 -20 -20 -20 -20 -20 -20 -20 -20 -20 -20 -20 -20 -20 -20 -20 -20 -20 -20 -20 -20 -20 -20 -20 -20 -20 -20 -20 -20 -20 -20 -20 -20 -20 -20 -20 -20 -20 -20 -20 -20 -20 -20 -20 -20 -20 -20 -20 -20
-20 -20 -20 -20 -20 -20 -20 -20 -20 -20 -20 -20 -20 -20 -20 -20 -20 -20 -20 -20 -20 -20 -20 -20 -20 -20 -20 -20 -20 -20 -20 -20 -20 -20 -20 -20 -20 -20 -20 -20 -20 -20 -20 -20 -20 -20 -20 -20 -20
-20 -20 -20 -20 -20 -20 -20 -20 -20 -20 -20 -20 -20 -20 -20 -20 -20 -20 -20 -20 -20 -20 -20 -20 -20 -20 -20 -20 -20 -20 -20 -20 -20 -20 -20 -20 -20 -20 -20 -20 -20 -20 -20 -20 -20 -20 -20 3 -20
Wind_Speed
9 4 3 3 4 5 1 3 2 3 2 2 4 3 5 4 1 3 5 7 11 9 6 8 9 10 11 13 11 11 10 9 10 11 11 10 13 13 14 12 13 13 11 10 10 13 11 12 12
2 3 1 2 5 4 2 4 1 2 5 6 7 3 6 3 4 9 7 10 12 9 5 6 9 10 11 11 11 10 9 9 10 10 10 11 11 13 13 12 12 12 11 10 11 11 11 11 11
4 3 2 3 3 4 4 1 5 8 5 3 4 6 4 2 7 10 9 13 10 7 6 6 11 10 10 11 10 9 9 9 10 9 10 10 11 12 12 11 10 11 10 10 9 10 9 10 10
2 3 2 4 2 4 1 8 10 9 6 6 7 6 4 3 11 8 14 12 8 6 6 8 12 11 11 11 10 10 9 10 10 10 9 9 10 10 11 11 10 9 10 9 9 8 7 8 8
3 3 5 4 2 3 5 13 10 8 5 6 3 4 4 6 11 16 14 11 11 7 6 6 10 11 10 12 11 9 9 10 9 9 9 9 9 10 9 10 9 8 6 7 6 6 6 5 6
5 3 5 2 5 3 11 10 10 5 9 10 8 5 2 10 14 11 10 8 7 8 6 5 10 10 11 11 11 10 10 11 10 9 7 10 7 9 9 8 8 7 6 5 4 3 4 4 4
5 3 2 1 5 5 9 8 10 10 11 6 8 5 2 6 9 12 8 6 6 5 5 4 5 8 11 11 10 10 10 10 10 9 8 9 8 7 7 10 7 7 6 5 4 4 4 5 4
4 3 4 2 5 4 10 6 10 14 8 11 10 6 6 9 12 10 8 6 5 4 4 4 4 4 5 5 11 11 11 11 11 10 9 10 8 8 7 6 6 7 6 4 4 6 6 4 3
2 3 1 3 5 4 14 7 5 4 12 2 5 6 11 14 13 10 6 4 3 4 4 5 5 5 5 4 6 11 12 11 10 9 9 6 2 2 3 5 6 6 5 4 5 6 5 4 3
3 2 4 5 4 6 16 15 13 6 10 2 10 12 16 17 14 12 11 8 6 7 6 5 5 5 5 4 3 4 4 4 4 4 4 3 3 2 3 5 7 6 6 5 4 4 3 1 1
5 4 4 4 4 7 6 12 5 16 5 7 17 17 17 15 13 12 13 13 15 10 6 7 5 5 6 4 3 2 1 2 3 5 4 3 2 2 2 2 3 2 6 2 3 3 2 3 3
1 10 9 3 5 7 10 13 7 10 6 13 19 21 18 17 17 15 13 10 9 9 10 8 6 6 6 4 4 3 3 3 2 3 4 3 2 3 3 2 3 3 2 3 4 3 4 4 5
4 6 8 7 7 7 13 9 8 4 11 14 17 18 18 17 16 12 10 9 9 10 10 10 9 8 7 5 4 4 4 4 4 4 4 4 4 4 3 3 3 4 3 3 4 4 4 4 5
4 6 5 4 5 7 10 6 6 6 12 14 17 17 16 16 16 12 10 12 12 11 12 10 10 8 6 6 5 4 4 4 4 4 5 6 4 4 4 4 5 4 4 4 4 4 4 5 4
3 2 4 2 3 5 12 1 5 12 14 16 16 15 14 16 14 15 15 15 16 12 12 12 11 9 9 9 7 4 5 5 4 5 5 7 6 5 5 4 4 4 4 5 3 3 4 4 2
5 4 2 4 6 5 4 6 5 12 14 13 15 15 15 17 17 15 13 14 13 12 13 11 10 11 10 8 7 5 5 5 5 4 4 6 7 7 5 4 5 4 4 3 2 2 2 4 4
3 4 5 4 9 7 4 3 9 13 13 13 12 12 9 10 14 14 16 15 15 15 12 11 11 10 9 8 6 5 7 5 5 4 4 6 6 6 5 4 4 4 3 4 3 3 3 3 4
8 5 4 7 6 4 6 6 13 16 14 15 13 10 8 9 14 16 16 15 14 13 13 13 10 10 8 5 4 3 3 3 4 5 5 7 5 6 5 4 4 3 2 3 2 4 2 4 4
10 7 8 5 6 6 6 6 17 17 14 13 11 11 9 12 11 13 14 12 13 11 13 13 11 8 6 3 3 3 4 3 3 4 7 6 5 6 6 4 4 4 4 5 4 1 2 2 3
14 12 15 3 7 6 6 7 11 17 20 17 15 13 15 12 7 12 12 9 13 13 13 11 13 8 8 4 3 3 3 3 2 2 4 5 6 6 5 5 5 4 3 4 3 2 1 2 2
5 4 12 2 3 4 6 4 7 13 13 14 14 14 13 17 15 14 12 13 12 13 14 13 14 11 9 7 3 2 1 2 1 1 3 7 6 5 7 6 5 5 3 4 3 3 3 2 2
3 7 13 7 6 6 7 6 8 16 18 16 15 15 16 17 16 15 15 13 14 15 13 14 13 11 11 9 7 6 5 4 4 3 4 5 7 6 6 6 5 5 3 4 4 2 2 2 4
12 6 10 9 2 7 2 2 8 14 15 20 20 17 17 19 19 18 17 16 16 13 13 13 12 11 12 13 10 8 5 4 3 2 4 4 3 6 6 6 6 5 4 4 4 3 2 2 3
8 5 7 6 4 2 8 10 8 9 27 20 17 20 20 17 19 19 17 15 14 13 13 12 12 11 10 12 9 11 9 7 4 4 4 4 3 4 6 5 6 6 5 6 5 4 4 2 6
6 7 5 5 3 8 4 4 12 9 15 23 24 23 22 19 16 17 17 17 15 16 15 13 13 13 12 12 11 10 9 8 8 6 4 4 3 3 6 5 5 5 6 6 4 4 5 3 8
5 9 7 5 3 8 5 6 10 10 15 23 23 22 21 19 17 18 23 19 17 18 16 15 14 13 13 13 13 11 9 7 7 7 5 4 4 4 3 5 5 6 6 4 4 3 3 6 8
5 4 7 7 2 2 4 9 13 4 6 12 16 15 17 20 20 22 18 18 17 17 19 19 16 15 14 15 12 12 10 10 8 8 6 5 5 4 6 5 4 6 6 6 5 4 6 7 7
7 6 0 3 2 5 5 4 8 11 9 6 11 17 18 18 18 19 16 18 18 17 17 17 17 18 18 15 13 11 12 11 10 6 7 7 6 5 5 5 5 6 6 5 5 5 5 7 7
1 3 2 5 6 6 4 8 9 10 8 10 14 16 18 17 18 18 17 18 20 17 14 17 16 16 15 15 13 12 11 11 9 8 9 8 6 6 6 6 6 6 6 4 4 5 5 8 7
3 4 6 6 7 4 3 10 5 9 7 12 18 17 18 17 18 18 17 16 16 17 15 17 17 16 17 15 14 14 10 9 9 10 10 8 8 6 6 6 6 5 6 6 5 6 3 6 7
Wind_Direction
240 190 107 40 61 68 57 238 302 115 92 36 108 145 118 63 139 188 145 147 136 148 162 158 157 148 140 141 143 143 127 120 112 110 110 117 111 115 115 118 118 117 123 126 130 113 113 115 118
229 231 90 70 80 82 296 279 184 197 120 132 67 43 53 65 68 116 115 151 142 146 143 147 160 158 149 142 151 142 131 124 121 116 118 117 122 116 122 118 118 119 123 120 114 112 112 110 110
186 40 88 102 106 156 146 227 119 94 139 93 108 56 55 66 87 141 137 144 138 140 147 162 159 161 154 153 154 143 134 133 129 124 125 122 122 123 120 119 120 119 125 122 117 109 119 120 122
67 24 27 76 22 324 248 142 137 131 69 56 104 64 70 226 150 143 137 136 129 144 150 167 162 161 157 148 152 146 145 140 131 130 129 137 122 120 125 132 119 120 124 117 117 117 121 119 120
63 56 42 49 106 334 128 150 149 132 106 100 59 102 62 111 106 131 142 147 152 155 163 160 162 159 152 150 151 152 153 143 140 138 141 138 134 122 124 126 121 124 120 114 117 111 110 114 113
44 97 60 89 140 276 148 157 143 102 108 105 100 94 86 128 132 147 149 143 154 157 158 167 164 163 153 145 153 159 148 148 151 151 159 140 137 138 130 126 126 132 131 139 145 143 129 123 134
102 48 146 215 177 177 168 172 145 134 130 114 136 88 87 139 152 146 133 127 142 155 143 150 157 167 156 147 161 160 157 159 152 157 153 144 151 138 142 138 145 149 153 164 178 181 156 175 162
86 74 310 203 187 172 143 155 152 135 139 116 144 158 171 167 153 122 123 132 131 146 147 154 169 137 140 150 172 169 171 163 159 170 162 164 162 160 157 156 166 166 167 161 157 163 180 177 147
108 56 303 243 131 156 155 138 147 83 142 185 211 141 137 137 130 122 115 115 126 168 182 183 172 160 150 168 189 176 171 167 170 177 176 168 125 166 179 167 199 185 183 179 164 149 162 178 165
101 64 242 233 143 150 170 147 146 128 153 84 97 109 137 147 151 153 164 172 182 188 197 200 179 168 158 183 204 181 189 164 171 171 187 160 166 191 186 204 215 216 219 215 206 188 204 284 299
167 220 248 251 150 121 113 140 120 139 192 190 144 150 154 162 165 170 187 185 184 183 187 195 190 172 176 183 185 191 199 178 186 193 191 176 159 211 221 233 269 228 233 240 246 243 220 238 269
209 238 255 216 163 124 140 139 137 174 200 161 157 159 160 172 180 185 187 185 182 183 192 187 184 182 193 186 186 192 190 196 200 215 201 170 207 218 217 210 228 245 262 236 245 240 236 239 246
261 257 245 223 166 146 134 144 152 179 146 140 158 163 173 179 186 193 191 189 183 189 197 195 185 192 189 191 188 191 201 198 196 209 215 198 212 221 193 217 218 221 220 230 236 237 260 252 240
214 267 26 111 138 137 140 132 106 155 147 148 167 180 181 187 189 184 180 193 191 193 199 193 193 192 170 194 196 201 201 209 195 209 221 214 216 230 207 210 217 224 224 223 231 233 248 246 228
282 63 356 120 79 93 104 309 178 163 162 169 181 189 194 198 193 198 188 193 190 199 193 194 195 183 187 196 197 201 214 203 209 216 217 213 207 219 217 219 220 225 205 234 240 254 273 287 279
351 51 134 216 139 182 93 242 169 172 170 184 192 195 199 202 206 206 195 198 195 190 193 196 197 190 197 197 197 205 213 213 222 208 209 212 207 211 222 222 232 221 204 190 209 249 294 263 256
336 235 211 248 191 142 171 204 195 183 180 195 202 210 210 190 204 204 200 198 195 192 186 188 197 193 186 195 192 194 198 204 224 213 213 221 199 203 204 210 232 221 196 192 209 218 220 261 269
241 229 236 217 200 169 180 213 179 193 188 201 203 216 203 202 205 195 192 194 192 191 191 191 188 186 180 183 155 193 169 226 218 211 210 220 207 189 197 221 227 208 218 236 220 231 219 245 270
239 231 225 230 175 142 211 186 184 204 205 210 210 211 211 206 206 193 187 180 181 186 186 189 177 190 164 165 169 158 188 203 228 208 216 209 205 205 199 212 211 199 215 225 216 227 236 274 232
259 245 245 275 182 158 164 228 195 199 215 210 206 210 210 203 191 199 194 177 183 182 188 183 189 180 191 179 169 162 171 197 202 214 232 218 216 221 205 206 221 217 232 250 243 207 345 285 220
272 214 270 245 111 60 111 301 185 223 228 230 227 211 208 200 198 196 195 192 187 188 188 187 191 187 192 186 122 87 45 48 73 242 223 222 215 209 221 219 215 224 207 243 257 210 172 274 307
221 237 246 197 157 199 155 261 239 205 215 223 224 212 208 205 208 201 197 194 192 199 191 190 191 190 194 181 177 173 178 179 201 214 225 220 209 223 216 229 222 225 202 239 234 236 197 166 281
265 191 227 178 159 114 142 26 256 182 214 219 221 213 210 206 204 205 202 197 199 191 193 192 190 191 190 188 190 189 191 200 201 224 259 255 245 233 225 217 219 228 217 239 230 242 224 211 267
284 345 36 50 83 0 204 179 264 182 212 215 219 219 215 206 207 209 206 200 201 197 193 190 186 192 184 187 189 188 194 201 208 246 256 238 238 243 237 223 212 224 226 223 222 220 209 243 272
72 51 334 351 30 228 180 127 248 234 223 207 206 210 215 209 203 206 203 200 200 199 197 193 187 196 189 190 193 196 201 191 198 213 221 232 243 236 239 212 227 229 229 225 214 214 211 200 244
201 150 159 239 230 262 190 232 264 233 222 208 205 205 204 206 206 203 211 196 198 200 198 197 193 200 191 194 201 200 198 202 204 202 200 228 230 239 242 225 235 255 247 231 198 220 184 217 260
262 192 196 127 71 354 237 293 310 329 258 199 202 199 200 205 206 211 207 202 197 197 199 199 198 199 195 199 200 203 203 202 203 205 197 206 219 223 231 232 217 230 225 210 194 208 208 219 240
181 175 306 11 212 247 282 264 239 315 291 233 200 200 202 206 205 217 205 202 203 202 201 197 201 198 199 198 200 202 203 209 214 194 202 207 215 218 221 232 247 242 227 212 184 208 221 207 242
331 270 83 127 146 185 247 260 212 227 215 203 213 208 201 201 203 210 206 203 201 200 191 201 198 197 196 194 196 201 201 201 206 206 210 207 204 212 221 219 213 222 233 228 233 241 216 227 235
272 244 159 135 263 220 187 266 183 234 226 196 213 219 202 201 202 204 202 195 196 196 190 193 197 193 196 194 192 199 195 190 194 210 216 213 216 210 212 199 208 231 238 231 238 266 220 226 237